Location: Passo di Treia
(43.2833°N, 13.3333°E)
Time: 19:52:11
(UTC+00:00)

Helios 1A Rocket - Pass Details

Date: 09 December 2019
Orbit: 563 x 587 km, 98.3° (Epoch: 18 January)

Event Time Altitude Azimuth Distance (km) Brightness Sun altitude
Rises 15:54:02 0° 169° (S) 2,793 6.6 -4.5°
Reaches altitude 10° 15:56:12 10° 171° (S) 1,895 5.8 -4.9°
Maximum altitude 16:00:18 76° 257° (WSW) 603 3.2 -5.5°
Drops below altitude 10° 16:04:25 10° 343° (NNW) 1,897 5.5 -6.2°
Sets 16:06:34 0° 345° (NNW) 2,796 6.3 -6.5°
